Station History

Weather Underground - logo

Station Historical Data
Daily Summary for October 5, 2017 Units:  English    Metric   Both
« Previous Day
Next Day »
Daily Weekly Monthly Yearly Custom
  High: Low: Average:
Temperature: 80.5 °F 47.6 °F 62.9 °F
Dew Point: 51.0 °F 40.3 °F 45.2 °F
Humidity: 86 % 24 % 58 %
Wind Speed: 5.8 mph 0.0 mph 0.9 mph
Wind Gust: 5.8 mph - -
Wind:- - SW
Pressure: 30.02 in 29.91 in -
Precipitation: 0.00 in    
Historical Graphs
 
 
Tabular Data for October 5, 2017
Time Temperature Dew Point Pressure Wind Wind Speed Wind Gust Humidity Rainfall Rate (Hourly)
00:02 52.5 °F 47.5 °F 30.00 in Calm     83 % 0.00 in
00:12 52.6 °F 47.6 °F 29.99 in Calm     83 % 0.00 in
00:17 52.8 °F 47.5 °F 29.99 in Calm     82 % 0.00 in
00:22 52.7 °F 47.4 °F 29.99 in Calm     82 % 0.00 in
00:27 52.5 °F 47.2 °F 29.99 in Calm     82 % 0.00 in
00:32 52.4 °F 47.4 °F 29.99 in Calm     83 % 0.00 in
00:37 52.3 °F 47.3 °F 29.99 in Calm     83 % 0.00 in
00:42 52.1 °F 47.1 °F 29.99 in Calm     83 % 0.00 in
00:47 51.9 °F 46.6 °F 29.99 in Calm     82 % 0.00 in
00:52 51.6 °F 46.3 °F 29.99 in Calm     82 % 0.00 in
00:57 51.3 °F 46.3 °F 29.99 in Calm     83 % 0.00 in
01:03 50.8 °F 45.8 °F 30.00 in Calm     83 % 0.00 in
01:08 50.6 °F 45.6 °F 29.99 in Calm     83 % 0.00 in
01:13 50.5 °F 45.8 °F 29.99 in Calm     84 % 0.00 in
01:18 50.6 °F 46.3 °F 29.99 in Calm     85 % 0.00 in
01:23 50.5 °F 46.2 °F 29.99 in Calm     85 % 0.00 in
01:28 50.4 °F 46.1 °F 30.00 in Calm     85 % 0.00 in
01:33 50.7 °F 46.7 °F 30.00 in Calm     86 % 0.00 in
01:43 50.9 °F 46.6 °F 30.00 in Calm     85 % 0.00 in
01:48 50.8 °F 46.1 °F 29.99 in Calm     84 % 0.00 in
01:53 51.0 °F 46.6 °F 30.00 in Calm     85 % 0.00 in
01:58 51.3 °F 46.9 °F 30.00 in Calm     85 % 0.00 in
02:03 51.1 °F 46.1 °F 30.00 in Calm     83 % 0.00 in
02:08 50.4 °F 45.1 °F 30.00 in Calm     82 % 0.00 in
02:13 49.9 °F 44.9 °F 30.00 in Calm     83 % 0.00 in
02:18 49.4 °F 44.8 °F 30.00 in Calm     84 % 0.00 in
02:23 48.9 °F 44.3 °F 30.00 in Calm     84 % 0.00 in
02:33 48.7 °F 44.4 °F 30.00 in Calm     85 % 0.00 in
02:38 48.6 °F 44.3 °F 30.00 in Calm     85 % 0.00 in
02:43 48.5 °F 44.2 °F 30.00 in Calm     85 % 0.00 in
02:49 48.4 °F 44.1 °F 30.00 in Calm     85 % 0.00 in
02:54 48.5 °F 44.2 °F 30.00 in Calm     85 % 0.00 in
02:59 48.6 °F 44.0 °F 30.00 in Calm     84 % 0.00 in
03:04 48.5 °F 44.2 °F 30.00 in Calm     85 % 0.00 in
03:09 48.3 °F 44.0 °F 30.00 in Calm     85 % 0.00 in
03:14 48.1 °F 44.1 °F 30.00 in Calm     86 % 0.00 in
03:19 48.0 °F 44.0 °F 30.00 in Calm     86 % 0.00 in
03:24 47.8 °F 43.8 °F 30.00 in Calm     86 % 0.00 in
03:29 47.7 °F 43.4 °F 30.00 in Calm     85 % 0.00 in
03:34 47.7 °F 43.4 °F 30.00 in Calm     85 % 0.00 in
03:39 47.6 °F 43.0 °F 30.00 in Calm     84 % 0.00 in
03:44 47.6 °F 43.3 °F 30.00 in Calm     85 % 0.00 in
03:54 47.9 °F 43.9 °F 30.00 in Calm     86 % 0.00 in
03:59 47.9 °F 43.6 °F 30.00 in Calm     85 % 0.00 in
04:04 47.9 °F 43.3 °F 30.00 in Calm     84 % 0.00 in
04:09 47.8 °F 43.2 °F 30.00 in Calm     84 % 0.00 in
04:14 47.9 °F 43.0 °F 30.00 in Calm     83 % 0.00 in
04:19 48.1 °F 43.2 °F 29.99 in Calm     83 % 0.00 in
04:24 48.3 °F 42.7 °F 30.00 in WNW 1.2 mph   81 % 0.00 in
04:29 48.5 °F 42.6 °F 30.00 in Calm     80 % 0.00 in
04:34 48.6 °F 42.7 °F 30.00 in Calm     80 % 0.00 in
04:39 48.7 °F 42.8 °F 30.00 in Calm     80 % 0.00 in
04:44 48.9 °F 42.7 °F 29.99 in Calm     79 % 0.00 in
04:49 49.1 °F 42.5 °F 29.99 in Calm     78 % 0.00 in
04:54 49.1 °F 42.5 °F 29.99 in Calm     78 % 0.00 in
04:59 48.9 °F 42.7 °F 29.99 in Calm     79 % 0.00 in
05:04 48.5 °F 42.3 °F 29.99 in Calm     79 % 0.00 in
05:09 48.7 °F 42.1 °F 29.99 in Calm     78 % 0.00 in
05:14 48.9 °F 42.0 °F 29.99 in Calm     77 % 0.00 in
05:19 49.1 °F 42.2 °F 29.99 in Calm     77 % 0.00 in
05:24 49.1 °F 41.9 °F 29.99 in Calm     76 % 0.00 in
05:29 49.2 °F 41.6 °F 29.99 in Calm     75 % 0.00 in
05:34 49.3 °F 41.7 °F 29.99 in Calm     75 % 0.00 in
05:39 49.5 °F 41.6 °F 29.99 in Calm     74 % 0.00 in
05:44 49.6 °F 41.3 °F 29.99 in Calm     73 % 0.00 in
05:49 49.7 °F 41.7 °F 29.99 in Calm     74 % 0.00 in
05:54 49.6 °F 41.7 °F 29.99 in Calm     74 % 0.00 in
06:00 49.6 °F 41.7 °F 29.99 in Calm     74 % 0.00 in
06:05 49.3 °F 41.7 °F 30.00 in Calm     75 % 0.00 in
06:10 49.1 °F 41.9 °F 30.00 in Calm     76 % 0.00 in
06:15 48.8 °F 41.9 °F 30.00 in Calm     77 % 0.00 in
06:20 48.7 °F 41.8 °F 30.00 in Calm     77 % 0.00 in
06:25 48.8 °F 42.2 °F 30.00 in Calm     78 % 0.00 in
06:30 48.5 °F 42.3 °F 30.00 in Calm     79 % 0.00 in
06:35 48.3 °F 42.1 °F 30.00 in Calm     79 % 0.00 in
06:40 48.0 °F 42.1 °F 30.00 in Calm     80 % 0.00 in
06:45 47.8 °F 42.3 °F 30.00 in Calm     81 % 0.00 in
06:50 48.0 °F 42.8 °F 30.00 in Calm     82 % 0.00 in
06:55 47.9 °F 42.7 °F 30.00 in Calm     82 % 0.00 in
07:00 47.8 °F 42.9 °F 30.00 in Calm     83 % 0.00 in
07:05 47.8 °F 42.9 °F 30.00 in Calm     83 % 0.00 in
07:10 47.7 °F 42.8 °F 30.00 in Calm     83 % 0.00 in
07:15 47.7 °F 43.1 °F 30.00 in Calm     84 % 0.00 in
07:20 47.6 °F 43.0 °F 30.00 in Calm     84 % 0.00 in
07:25 47.6 °F 43.0 °F 30.00 in Calm     84 % 0.00 in
07:30 47.7 °F 43.1 °F 30.00 in Calm     84 % 0.00 in
07:35 48.0 °F 43.4 °F 30.00 in Calm     84 % 0.00 in
07:45 49.0 °F 44.4 °F 30.01 in Calm     84 % 0.00 in
07:50 49.4 °F 44.8 °F 30.01 in Calm     84 % 0.00 in
07:55 49.8 °F 44.8 °F 30.01 in Calm     83 % 0.00 in
08:00 50.1 °F 44.5 °F 30.01 in Calm     81 % 0.00 in
08:05 50.8 °F 45.2 °F 30.01 in Calm     81 % 0.00 in
08:10 51.7 °F 45.4 °F 30.01 in Calm     79 % 0.00 in
08:20 53.6 °F 46.9 °F 30.02 in Calm     78 % 0.00 in
08:25 54.6 °F 46.5 °F 30.02 in WSW 1.2 mph   74 % 0.00 in
08:30 55.3 °F 46.4 °F 30.02 in Calm     72 % 0.00 in
08:35 56.0 °F 45.6 °F 30.02 in West 1.2 mph   68 % 0.00 in
08:40 56.9 °F 45.3 °F 30.02 in Calm     65 % 0.00 in
08:45 58.3 °F 46.2 °F 30.02 in Calm     64 % 0.00 in
08:50 59.9 °F 45.5 °F 30.02 in Calm     59 % 0.00 in
08:55 61.2 °F 44.4 °F 30.02 in ESE 2.3 mph 2.3 mph 54 % 0.00 in
09:00 61.5 °F 44.2 °F 30.02 in South 3.5 mph 3.5 mph 53 % 0.00 in
09:05 62.1 °F 44.8 °F 30.02 in SE 2.3 mph 2.3 mph 53 % 0.00 in
09:10 62.4 °F 43.5 °F 30.02 in ENE 3.5 mph 3.5 mph 50 % 0.00 in
09:15 62.6 °F 43.2 °F 30.02 in NE 2.3 mph 2.3 mph 49 % 0.00 in
09:20 63.3 °F 43.8 °F 30.02 in NE 2.3 mph 2.3 mph 49 % 0.00 in
09:25 63.7 °F 43.1 °F 30.02 in SE 3.5 mph 3.5 mph 47 % 0.00 in
09:30 64.5 °F 44.4 °F 30.02 in ESE 2.3 mph 2.3 mph 48 % 0.00 in
09:35 65.2 °F 43.3 °F 30.02 in South 3.5 mph 3.5 mph 45 % 0.00 in
09:40 65.5 °F 43.6 °F 30.02 in SE 2.3 mph 2.3 mph 45 % 0.00 in
09:45 66.3 °F 44.3 °F 30.02 in ESE 3.0 mph 3.0 mph 45 % 0.00 in
09:50 66.4 °F 43.2 °F 30.02 in South 2.3 mph 2.3 mph 43 % 0.00 in
09:55 66.9 °F 43.0 °F 30.02 in ESE 4.6 mph 4.6 mph 42 % 0.00 in
10:00 67.2 °F 43.9 °F 30.02 in ESE 1.2 mph 1.2 mph 43 % 0.00 in
10:05 67.9 °F 44.0 °F 30.02 in SSE 2.0 mph 2.0 mph 42 % 0.00 in
10:10 68.3 °F 43.7 °F 30.02 in SE 4.0 mph 4.0 mph 41 % 0.00 in
10:15 68.6 °F 43.3 °F 30.02 in SSW 2.0 mph 2.0 mph 40 % 0.00 in
10:20 68.8 °F 43.5 °F 30.02 in East 3.5 mph 3.5 mph 40 % 0.00 in
10:25 69.1 °F 43.1 °F 30.02 in ESE 4.6 mph 4.6 mph 39 % 0.00 in
10:30 69.6 °F 43.5 °F 30.01 in ENE 4.0 mph 4.0 mph 39 % 0.00 in
10:35 69.9 °F 42.4 °F 30.01 in East 4.6 mph 4.6 mph 37 % 0.00 in
10:40 70.4 °F 43.6 °F 30.01 in East 2.3 mph 2.3 mph 38 % 0.00 in
10:45 70.8 °F 43.9 °F 30.01 in SE 3.5 mph 3.5 mph 38 % 0.00 in
10:51 71.3 °F 44.4 °F 30.01 in SW 5.8 mph 5.8 mph 38 % 0.00 in
10:56 71.6 °F 44.6 °F 30.01 in South 3.0 mph 3.0 mph 38 % 0.00 in
11:01 71.9 °F 44.9 °F 30.01 in SE 2.3 mph 2.3 mph 38 % 0.00 in
11:06 72.5 °F 44.7 °F 30.01 in ESE 3.5 mph 3.5 mph 37 % 0.00 in
11:11 72.8 °F 44.3 °F 30.01 in South 3.5 mph 3.5 mph 36 % 0.00 in
11:16 72.9 °F 45.1 °F 30.01 in SSE 3.5 mph 3.5 mph 37 % 0.00 in
11:21 73.0 °F 44.5 °F 30.00 in SE 1.2 mph   36 % 0.00 in
11:26 73.5 °F 44.9 °F 30.00 in SE 3.5 mph 3.5 mph 36 % 0.00 in
11:31 73.8 °F 45.2 °F 30.00 in North 2.0 mph 2.0 mph 36 % 0.00 in
11:36 73.7 °F 46.5 °F 30.00 in South 2.0 mph 2.0 mph 38 % 0.00 in
11:41 74.2 °F 45.5 °F 30.00 in NNE 1.2 mph   36 % 0.00 in
11:46 74.6 °F 45.9 °F 30.00 in East 1.2 mph 1.2 mph 36 % 0.00 in
11:51 75.5 °F 45.9 °F 30.00 in NE 3.5 mph 3.5 mph 35 % 0.00 in
11:56 75.5 °F 45.9 °F 30.00 in North 1.2 mph 1.2 mph 35 % 0.00 in
12:01 75.6 °F 46.8 °F 29.99 in SSW 3.5 mph 3.5 mph 36 % 0.00 in
12:06 75.9 °F 47.8 °F 29.99 in SE 1.2 mph 1.2 mph 37 % 0.00 in
12:11 76.4 °F 46.7 °F 29.99 in ESE 3.5 mph 3.5 mph 35 % 0.00 in
12:16 76.5 °F 46.0 °F 29.99 in SSW 2.3 mph 2.3 mph 34 % 0.00 in
12:21 76.8 °F 46.3 °F 29.99 in South 3.5 mph 3.5 mph 34 % 0.00 in
12:26 76.9 °F 45.6 °F 29.99 in SSE 3.5 mph 3.5 mph 33 % 0.00 in
12:31 77.0 °F 44.9 °F 29.98 in SE 2.3 mph 2.3 mph 32 % 0.00 in
12:36 77.2 °F 46.7 °F 29.98 in NW 1.2 mph   34 % 0.00 in
12:41 77.7 °F 45.5 °F 29.98 in NNW 3.5 mph 3.5 mph 32 % 0.00 in
12:46 77.2 °F 42.5 °F 29.98 in North 3.5 mph 3.5 mph 29 % 0.00 in
12:51 77.3 °F 45.9 °F 29.98 in WNW 2.0 mph 2.0 mph 33 % 0.00 in
12:56 77.2 °F 46.7 °F 29.97 in NE 1.2 mph   34 % 0.00 in
13:01 78.3 °F 45.2 °F 29.97 in East 3.5 mph 3.5 mph 31 % 0.00 in
13:06 78.8 °F 43.8 °F 29.97 in South 1.2 mph 1.2 mph 29 % 0.00 in
13:11 79.1 °F 45.9 °F 29.97 in WNW 1.2 mph   31 % 0.00 in
13:16 79.5 °F 46.2 °F 29.97 in North 3.0 mph 3.0 mph 31 % 0.00 in
13:21 78.9 °F 43.0 °F 29.96 in WNW 2.0 mph 2.0 mph 28 % 0.00 in
13:26 78.7 °F 45.5 °F 29.96 in NW 3.5 mph 3.5 mph 31 % 0.00 in
13:31 79.2 °F 43.3 °F 29.96 in NW 2.3 mph 2.3 mph 28 % 0.00 in
13:36 79.0 °F 42.2 °F 29.96 in WNW 1.2 mph 1.2 mph 27 % 0.00 in
13:41 79.3 °F 42.4 °F 29.95 in NW 1.2 mph   27 % 0.00 in
13:43 79.3 °F 43.4 °F 29.95 in NW 1.2 mph 1.2 mph 28 % 0.00 in
13:48 79.3 °F 45.2 °F 29.95 in East 1.2 mph 1.2 mph 30 % 0.00 in
13:53 80.0 °F 45.8 °F 29.95 in SSE 1.2 mph 1.2 mph 30 % 0.00 in
13:58 80.2 °F 44.1 °F 29.94 in East 2.3 mph 2.3 mph 28 % 0.00 in
14:03 80.0 °F 41.0 °F 29.94 in East 1.2 mph 1.2 mph 25 % 0.00 in
14:08 80.1 °F 44.0 °F 29.94 in NW 1.2 mph   28 % 0.00 in
14:13 80.3 °F 44.2 °F 29.94 in NW 3.5 mph 3.5 mph 28 % 0.00 in
14:18 80.2 °F 43.2 °F 29.93 in NW 3.5 mph 3.5 mph 27 % 0.00 in
14:23 79.9 °F 44.8 °F 29.93 in WNW 1.2 mph 1.2 mph 29 % 0.00 in
14:28 79.7 °F 41.8 °F 29.93 in NW 2.3 mph 2.3 mph 26 % 0.00 in
14:33 79.8 °F 42.8 °F 29.93 in NW 1.2 mph   27 % 0.00 in
14:38 80.0 °F 43.0 °F 29.93 in NW 3.5 mph 3.5 mph 27 % 0.00 in
14:43 79.8 °F 42.8 °F 29.93 in WNW 1.2 mph   27 % 0.00 in
14:48 79.8 °F 42.8 °F 29.93 in WNW 2.3 mph 2.3 mph 27 % 0.00 in
14:53 80.0 °F 42.0 °F 29.92 in WNW 2.3 mph 2.3 mph 26 % 0.00 in
14:58 79.9 °F 43.9 °F 29.92 in NNW 1.2 mph 1.2 mph 28 % 0.00 in
15:03 79.8 °F 42.8 °F 29.92 in SW 2.3 mph 2.3 mph 27 % 0.00 in
15:13 79.6 °F 41.7 °F 29.92 in NW 1.2 mph 1.2 mph 26 % 0.00 in
15:18 79.9 °F 42.9 °F 29.92 in NW 2.3 mph 2.3 mph 27 % 0.00 in
15:23 79.8 °F 41.9 °F 29.92 in NW 1.0 mph 1.0 mph 26 % 0.00 in
15:28 79.8 °F 41.9 °F 29.91 in NW 1.2 mph 1.2 mph 26 % 0.00 in
15:33 80.0 °F 43.0 °F 29.92 in WSW 2.3 mph 2.3 mph 27 % 0.00 in
15:38 80.4 °F 42.4 °F 29.91 in Calm     26 % 0.00 in
15:43 80.5 °F 41.4 °F 29.91 in NNW 1.2 mph 1.2 mph 25 % 0.00 in
15:48 80.3 °F 43.3 °F 29.91 in NW 2.3 mph 2.3 mph 27 % 0.00 in
15:53 80.3 °F 41.3 °F 29.91 in NNW 2.3 mph 2.3 mph 25 % 0.00 in
15:58 80.4 °F 40.3 °F 29.91 in Calm     24 % 0.00 in
16:03 80.1 °F 42.1 °F 29.91 in NNW 2.0 mph 2.0 mph 26 % 0.00 in
16:09 79.8 °F 40.8 °F 29.91 in West 1.2 mph 1.2 mph 25 % 0.00 in
16:14 79.8 °F 41.9 °F 29.91 in NW 1.2 mph 1.2 mph 26 % 0.00 in
16:19 79.7 °F 40.8 °F 29.91 in WNW 3.5 mph 3.5 mph 25 % 0.00 in
16:24 79.5 °F 42.6 °F 29.91 in WNW 1.2 mph 1.2 mph 27 % 0.00 in
16:29 79.2 °F 41.3 °F 29.91 in NW 2.3 mph 2.3 mph 26 % 0.00 in
16:34 79.0 °F 41.2 °F 29.91 in NNW 1.2 mph 1.2 mph 26 % 0.00 in
16:39 78.9 °F 41.1 °F 29.91 in West 2.3 mph 2.3 mph 26 % 0.00 in
16:49 78.7 °F 40.9 °F 29.91 in Calm     26 % 0.00 in
16:54 78.7 °F 44.7 °F 29.91 in WNW 1.2 mph 1.2 mph 30 % 0.00 in
16:59 78.6 °F 43.7 °F 29.91 in NNW 2.3 mph 2.3 mph 29 % 0.00 in
17:04 78.5 °F 44.5 °F 29.91 in Calm     30 % 0.00 in
17:09 78.3 °F 44.3 °F 29.91 in NW 1.2 mph 1.2 mph 30 % 0.00 in
17:14 78.2 °F 44.2 °F 29.91 in WNW 2.3 mph 2.3 mph 30 % 0.00 in
17:19 78.0 °F 44.0 °F 29.91 in NW 1.2 mph 1.2 mph 30 % 0.00 in
17:24 77.8 °F 43.0 °F 29.91 in NW 2.3 mph 2.3 mph 29 % 0.00 in
17:29 77.6 °F 44.6 °F 29.91 in NW 2.3 mph 2.3 mph 31 % 0.00 in
17:34 77.3 °F 44.3 °F 29.91 in WNW 1.2 mph 1.2 mph 31 % 0.00 in
17:39 77.1 °F 44.1 °F 29.91 in WNW 1.2 mph 1.2 mph 31 % 0.00 in
17:44 76.7 °F 44.6 °F 29.91 in WNW 1.0 mph 1.0 mph 32 % 0.00 in
17:49 76.4 °F 44.4 °F 29.91 in WNW 2.3 mph 2.3 mph 32 % 0.00 in
17:54 76.1 °F 44.9 °F 29.91 in WNW 1.0 mph   33 % 0.00 in
17:59 75.7 °F 44.5 °F 29.91 in NW 1.2 mph 1.2 mph 33 % 0.00 in
18:04 75.4 °F 44.3 °F 29.91 in Calm     33 % 0.00 in
18:09 75.0 °F 44.7 °F 29.91 in Calm     34 % 0.00 in
18:14 74.5 °F 45.0 °F 29.91 in Calm     35 % 0.00 in
18:19 74.1 °F 45.4 °F 29.91 in Calm     36 % 0.00 in
18:24 73.6 °F 45.0 °F 29.91 in Calm     36 % 0.00 in
18:29 73.1 °F 46.7 °F 29.91 in Calm     39 % 0.00 in
18:34 72.3 °F 45.9 °F 29.91 in Calm     39 % 0.00 in
18:39 71.4 °F 47.1 °F 29.91 in Calm     42 % 0.00 in
18:44 70.6 °F 47.0 °F 29.91 in Calm     43 % 0.00 in
18:49 69.8 °F 47.5 °F 29.92 in Calm     45 % 0.00 in
18:54 69.1 °F 46.9 °F 29.92 in Calm     45 % 0.00 in
18:59 68.5 °F 48.0 °F 29.92 in Calm     48 % 0.00 in
19:04 67.8 °F 47.9 °F 29.92 in Calm     49 % 0.00 in
19:10 67.2 °F 47.9 °F 29.92 in Calm     50 % 0.00 in
19:15 66.6 °F 48.4 °F 29.92 in Calm     52 % 0.00 in
19:20 66.1 °F 49.5 °F 29.92 in Calm     55 % 0.00 in
19:25 65.5 °F 48.4 °F 29.92 in Calm     54 % 0.00 in
19:30 65.1 °F 50.0 °F 29.92 in Calm     58 % 0.00 in
19:35 64.8 °F 50.6 °F 29.92 in Calm     60 % 0.00 in
19:40 64.4 °F 50.7 °F 29.92 in Calm     61 % 0.00 in
19:45 64.1 °F 49.0 °F 29.93 in Calm     58 % 0.00 in
19:50 63.9 °F 50.2 °F 29.92 in Calm     61 % 0.00 in
19:55 63.8 °F 49.6 °F 29.92 in Calm     60 % 0.00 in
20:00 63.7 °F 49.5 °F 29.92 in Calm     60 % 0.00 in
20:05 63.5 °F 49.8 °F 29.92 in Calm     61 % 0.00 in
20:10 63.2 °F 49.1 °F 29.92 in Calm     60 % 0.00 in
20:15 63.0 °F 48.9 °F 29.93 in Calm     60 % 0.00 in
20:20 63.0 °F 49.3 °F 29.93 in Calm     61 % 0.00 in
20:23 62.9 °F 49.2 °F 29.93 in Calm     61 % 0.00 in
20:25 62.8 °F 49.1 °F 29.93 in Calm     61 % 0.00 in
20:29 62.7 °F 49.1 °F 29.93 in Calm     61 % 0.00 in
20:34 62.9 °F 51.0 °F 29.93 in Calm     65 % 0.00 in
20:39 62.8 °F 50.0 °F 29.93 in Calm     63 % 0.00 in
20:44 62.5 °F 50.2 °F 29.93 in Calm     64 % 0.00 in
20:49 62.2 °F 49.9 °F 29.93 in Calm     64 % 0.00 in
20:55 61.7 °F 50.6 °F 29.94 in Calm     67 % 0.00 in
21:00 61.2 °F 50.6 °F 29.93 in Calm     68 % 0.00 in
21:05 60.8 °F 50.6 °F 29.94 in Calm     69 % 0.00 in
21:10 60.4 °F 50.6 °F 29.94 in Calm     70 % 0.00 in
21:16 60.0 °F 50.6 °F 29.94 in Calm     71 % 0.00 in
21:21 59.7 °F 50.7 °F 29.94 in Calm     72 % 0.00 in
21:26 59.4 °F 50.7 °F 29.94 in Calm     73 % 0.00 in
21:31 59.4 °F 50.7 °F 29.94 in Calm     73 % 0.00 in
21:36 59.5 °F 50.5 °F 29.94 in Calm     72 % 0.00 in
21:41 59.3 °F 50.3 °F 29.95 in Calm     72 % 0.00 in
21:46 58.9 °F 50.3 °F 29.95 in Calm     73 % 0.00 in
21:51 58.7 °F 50.4 °F 29.95 in Calm     74 % 0.00 in
21:56 58.3 °F 49.7 °F 29.95 in Calm     73 % 0.00 in
22:01 57.9 °F 48.6 °F 29.95 in Calm     71 % 0.00 in
22:06 58.1 °F 48.4 °F 29.95 in Calm     70 % 0.00 in
22:11 58.2 °F 49.2 °F 29.95 in Calm     72 % 0.00 in
22:16 58.0 °F 47.9 °F 29.95 in Calm     69 % 0.00 in
22:21 58.2 °F 47.7 °F 29.95 in Calm     68 % 0.00 in
22:26 58.2 °F 48.8 °F 29.96 in Calm     71 % 0.00 in
22:31 57.5 °F 48.5 °F 29.96 in Calm     72 % 0.00 in
22:36 57.3 °F 48.7 °F 29.96 in Calm     73 % 0.00 in
22:41 57.4 °F 49.2 °F 29.96 in Calm     74 % 0.00 in
22:46 57.4 °F 49.2 °F 29.96 in Calm     74 % 0.00 in
22:51 57.2 °F 48.6 °F 29.96 in Calm     73 % 0.00 in
22:56 57.0 °F 48.8 °F 29.96 in Calm     74 % 0.00 in
23:01 56.8 °F 49.0 °F 29.96 in Calm     75 % 0.00 in
23:06 56.7 °F 48.9 °F 29.96 in Calm     75 % 0.00 in
23:11 56.5 °F 48.7 °F 29.96 in Calm     75 % 0.00 in
23:16 56.3 °F 48.8 °F 29.96 in Calm     76 % 0.00 in
23:21 56.1 °F 49.0 °F 29.96 in Calm     77 % 0.00 in
23:26 55.7 °F 48.6 °F 29.96 in Calm     77 % 0.00 in
23:31 55.4 °F 49.0 °F 29.96 in Calm     79 % 0.00 in
23:36 55.2 °F 48.8 °F 29.97 in Calm     79 % 0.00 in
23:41 55.1 °F 48.7 °F 29.97 in Calm     79 % 0.00 in
23:46 55.2 °F 49.1 °F 29.97 in Calm     80 % 0.00 in
23:51 55.3 °F 48.6 °F 29.97 in Calm     78 % 0.00 in
23:56 55.1 °F 48.4 °F 29.97 in Calm     78 % 0.00 in
Park Place, Exeter, Tulare County, California, USA
Compliments of Weather Underground - 2.75 mb